Location: Taipo
(41.0000°S, 175.9500°E)
Time: 14:28:02
(UTC+00:00)

OAO 3 Rocket - Visible Passes

Search period start: 16 July 2024 00:00
Search period end: 26 July 2024 00:00
Orbit: 621 x 671 km, 35.0° (Epoch: 15 July)

Date Brightness Start Highest point End Pass type
(mag) Time Alt. Az. Time Alt. Az. Time Alt. Az.
22 Jul 6.2 19:03:23 10° N 19:05:25 12° NNE 19:07:28 10° NE visible
24 Jul 6.0 18:10:46 10° N 18:12:51 13° NNE 18:14:56 10° NE visible
25 Jul 5.5 18:34:04 10° NNW 18:37:45 21° NNE 18:41:28 10° ENE visible
